[[{"header":{"parameterUnit":"m.s-1","parameterCategory":1,"la1":30.2992,"la2":30.254,"lo1":-89.0895,"lo2":-89.0443,"dy":0.0025,"dx":0.0025,"nx":19,"ny":19,"refTime":"2026-05-09T09:00:00:Z","depth":0,"parameterNumber":2,"parameterNumberName":"U-component_of_WINDS"},"data":[0,0,0,-0.948,-0.9479,-0.9408,-0.9408,-0.9338,-0.9337,0,0,0,0,0,0,0,0,0,0,0,-0.9513,-0.9513,-0.9481,-0.9479,-0.9409,-0.9408,-0.9338,-0.9337,0,0,0,0,0,0,0,0,0,0,0,-0.9513,-0.9513,-0.9512,-0.9479,-0.9409,-0.9408,-0.9338,-0.9384,0,0,0,0,0,0,0,0,0,0,-0.9449,-0.949,-0.9513,-0.9512,-0.9479,-0.9409,-0.9408,-0.9386,-0.9381,-0.9378,0,-0.9377,0,-0.9356,-0.9334,-0.9333,0,0,0,-0.9471,-0.9494,-0.9465,-0.9512,-0.9478,-0.9409,-0.9438,-0.9383,-0.9378,-0.9372,-0.9376,-0.9373,-0.9355,-0.9333,-0.9333,-0.9342,-0.9343,0,0,-0.9474,-0.9506,-0.9469,-0.9462,-0.9474,-0.944,-0.9436,-0.938,-0.9387,-0.9376,-0.9371,-0.9354,-0.9333,-0.9333,-0.9342,-0.9342,0,0,0,-0.9491,-0.9509,-0.9481,-0.9465,-0.9451,-0.9438,-0.9433,-0.9389,-0.9377,-0.937,-0.9353,-0.9333,-0.9332,-0.9341,-0.9342,-0.9393,0,0,0,-0.9493,-0.9519,-0.9483,-0.9502,-0.9453,-0.9419,-0.9445,-0.9381,-0.9374,-0.9354,-0.9333,-0.9331,-0.9341,-0.9341,-0.9391,-0.9412,0,0,0,-0.9513,-0.9521,-0.9515,-0.9503,-0.9474,-0.9419,-0.9404,-0.9379,-0.9364,-0.9333,-0.9331,-0.934,-0.9341,-0.9388,-0.9408,-0.9423,0,0,0,-0.9544,-0.9561,-0.9516,-0.9529,-0.9475,-0.9452,-0.9404,-0.9385,-0.9366,-0.9332,-0.9341,-0.9342,-0.9388,-0.9405,-0.942,-0.944,-0.9451,0,0,-0.9583,-0.9567,-0.9572,-0.953,-0.9523,-0.9461,-0.9462,-0.9413,-0.9382,-0.9357,-0.9357,-0.9392,-0.9407,-0.9422,-0.9507,-0.9516,0,0,0,-0.9596,-0.96,-0.9591,-0.9574,-0.9539,-0.951,-0.9458,-0.9441,-0.9419,-0.9376,-0.9401,-0.9409,-0.9417,-0.9424,-0.9432,-0.9436,-0.9347,-0.9347,-0.9347,-0.9695,-0.9655,-0.9661,-0.9613,-0.9597,-0.9545,-0.9529,-0.9497,-0.946,-0.9467,-0.9458,-0.9515,-0.9525,-0.9531,-0.9535,-0.9467,-0.9467,-0.9468,-0.9468,-0.9748,-0.9747,-0.97,-0.9689,-0.9647,-0.9638,-0.959,-0.9565,-0.955,-0.9517,-0.9522,-0.9488,-0.9542,-0.9544,-0.9471,-0.9471,-0.947,-0.947,-0.947,-0.9806,-0.9799,-0.9778,-0.975,-0.9734,-0.9686,-0.9674,-0.9637,-0.9602,-0.9606,-0.9593,-0.9592,-0.9585,-0.9603,-0.9603,-0.9604,-0.9604,-0.9604,-0.9604,-0.9874,-0.9849,-0.9844,-0.981,-0.9795,-0.977,-0.9721,-0.9706,-0.9679,-0.9652,-0.9652,-0.9615,-0.9556,-0.9541,-0.9607,-0.9606,-0.9606,-0.9606,-0.9605,-0.9939,-0.9919,-0.9911,-0.9896,-0.9853,-0.984,-0.9794,-0.9766,-0.9748,-0.9744,-0.9707,-0.967,-0.965,-0.9644,-0.963,-0.9716,-0.9716,-0.9716,-0.9716,-0.9987,-0.9974,-0.9958,-0.9937,-0.9912,-0.987,-0.9864,-0.9827,-0.9786,-0.9772,-0.9755,-0.9736,-0.9731,-0.9714,-0.9706,-0.9693,-0.9793,-0.9793,-0.9793,-1.0024,-1.0008,-1.0008,-0.9968,-0.9933,-0.9904,-0.9896,-0.9875,-0.9824,-0.9795,-0.9761,-0.9758,-0.9726,-0.9718,-0.9685,-0.9673,-0.9649,0,0]},{"header":{"parameterUnit":"m.s-1","parameterCategory":1,"la1":30.2992,"la2":30.254,"lo1":-89.0895,"lo2":-89.0443,"dy":0.0025,"dx":0.0025,"nx":19,"ny":19,"refTime":"2026-05-09T09:00:00:Z","depth":0,"parameterNumber":3,"parameterNumberName":"V-component_of_WINDS"},"data":[0,0,0,2.5247,2.5246,2.5229,2.5229,2.5192,2.5192,0,0,0,0,0,0,0,0,0,0,0,2.5244,2.5244,2.5247,2.5246,2.5229,2.5229,2.5192,2.5192,0,0,0,0,0,0,0,0,0,0,0,2.5245,2.5244,2.5243,2.5246,2.5229,2.5229,2.5192,2.521,0,0,0,0,0,0,0,0,0,0,2.523,2.522,2.5244,2.5243,2.5246,2.5229,2.5229,2.5211,2.5209,2.5194,0,2.518,0,2.5185,2.5188,2.5188,0,0,0,2.5251,2.5222,2.5224,2.5243,2.5246,2.5229,2.5238,2.521,2.5208,2.5191,2.518,2.5179,2.5185,2.5188,2.5188,2.5089,2.5088,0,0,2.5252,2.5237,2.5226,2.5222,2.5226,2.5239,2.5237,2.5209,2.5195,2.518,2.5178,2.5184,2.5188,2.5187,2.509,2.5089,0,0,0,2.5252,2.5237,2.5241,2.5224,2.5222,2.5238,2.5237,2.5196,2.5199,2.5178,2.5184,2.5188,2.5187,2.509,2.5089,2.5041,0,0,0,2.5252,2.5237,2.5241,2.5231,2.5222,2.5209,2.5224,2.5201,2.5198,2.5184,2.5188,2.5187,2.5091,2.509,2.5044,2.502,0,0,0,2.5248,2.5236,2.5231,2.523,2.5222,2.521,2.5211,2.52,2.5201,2.5188,2.5186,2.5092,2.509,2.5047,2.5025,2.4991,0,0,0,2.5238,2.5187,2.523,2.5175,2.5222,2.518,2.5211,2.518,2.5163,2.5187,2.5091,2.5089,2.5048,2.5028,2.4994,2.4961,2.4945,0,0,2.5165,2.5177,2.5146,2.5185,2.5131,2.5184,2.5123,2.5121,2.5133,2.5103,2.51,2.5043,2.5025,2.4992,2.4862,2.485,0,0,0,2.5117,2.5095,2.5084,2.5068,2.5067,2.5064,2.5074,2.5073,2.5049,2.5114,2.5022,2.5011,2.4992,2.4977,2.4967,2.4952,2.5082,2.5082,2.5082,2.4991,2.5011,2.4961,2.4979,2.4963,2.4974,2.4963,2.4964,2.4987,2.4965,2.4956,2.4875,2.4857,2.4849,2.4833,2.4939,2.4939,2.4939,2.4939,2.4885,2.4857,2.4891,2.4855,2.4876,2.4845,2.4854,2.4872,2.4846,2.4883,2.4867,2.4907,2.4835,2.4822,2.4935,2.4936,2.4936,2.4937,2.4937,2.4806,2.4796,2.4797,2.4778,2.476,2.4779,2.4754,2.4773,2.4791,2.4775,2.4769,2.477,2.4774,2.4771,2.477,2.477,2.477,2.477,2.4769,2.4723,2.4726,2.4703,2.4698,2.4691,2.4685,2.4696,2.4689,2.4687,2.4703,2.4703,2.4729,2.4824,2.4848,2.4765,2.4766,2.4766,2.4767,2.4767,2.4611,2.4639,2.4604,2.4597,2.4594,2.4576,2.4601,2.4586,2.4583,2.457,2.4599,2.4666,2.468,2.4689,2.4709,2.4595,2.4595,2.4595,2.4595,2.4544,2.4553,2.4523,2.4511,2.4501,2.4521,2.448,2.4488,2.4501,2.4501,2.452,2.4548,2.4556,2.4565,2.4576,2.4596,2.4455,2.4455,2.4455,2.4477,2.4487,2.4448,2.4463,2.4462,2.4461,2.4423,2.4408,2.4428,2.4449,2.4501,2.4507,2.4553,2.4566,2.4589,2.4606,2.4642,0,0]}]]